Regional Weather Roundup
Issued by NWS

Home | Current Version | Previous Version | Graphics & Text | Print | Product List | Glossary On
Versions: 1 2 3 4 5 6 7 8 9 10 11 12 13 14 15 16 17 18 19 20 21 22 23 24 25 26 27 28 29 30 31 32 33 34 35 36 37 38 39 40 41 42 43 44 45 46 47 48 49 50
000
ASUS43 KBIS 170310
RWRND

NORTH DAKOTA REGIONAL WEATHER ROUNDUP
NATIONAL WEATHER SERVICE BISMARCK ND
900 PM CST SAT DEC 16 2017

NOTE: "FAIR" INDICATES FEW OR NO CLOUDS BELOW 12,000 FEET WITH NO
SIGNIFICANT WEATHER AND/OR OBSTRUCTIONS TO VISIBILITY.


NDZ001>003-009>011-017-170400-
NORTHWEST NORTH DAKOTA

CITY           SKY/WX    TMP DP  RH WIND       PRES   REMARKS
WILLISTON      CLEAR     24  17  74 SW8       30.03R WCI  15
MINOT          CLEAR     29  21  72 SW10      30.00R WCI  20
MINOT AFB      CLEAR     27  20  75 W7        29.98R WCI  20
$$

NDZ018>021-031>035-040>046-170400-
SOUTHWEST NORTH DAKOTA

CITY           SKY/WX    TMP DP  RH WIND       PRES   REMARKS
BISMARCK       CLOUDY    32  28  85 SW3       30.06R
DICKINSON      CLOUDY    24  19  81 W6        30.02R WCI  17
GARRISON         N/A     29  21  72 W8        30.01S
HETTINGER ARPT CLOUDY    24  19  81 NW5       30.06R WCI  18
$$

NDZ004>008-012>016-024-026-027-054-170400-
NORTHEAST NORTH DAKOTA

CITY           SKY/WX    TMP DP  RH WIND       PRES   REMARKS
GRAND FORKS    CLOUDY    14  12  92 S8        30.02F WCI   3
GRND FRKS AFB  CLOUDY    13  11  90 SW6       30.01F WCI   4
DEVILS LAKE    CLEAR     24  22  91 W7        30.00R WCI  16
$$

NDZ022-023-025-028>030-036>039-047>053-170400-
SOUTHEAST NORTH DAKOTA

CITY           SKY/WX    TMP DP  RH WIND       PRES   REMARKS
FARGO          CLOUDY    22  21  96 SE5       30.06R FOG     WCI  16
JAMESTOWN      CLOUDY    28  27  96 CALM      30.02R
$$





USA.gov is the U.S. government's official web portal to all federal, state and local government web resources and services.